Duluth, MN

9:02 PM CDT on July 25, 2017 (GMT -0500)
Duluth International

Weather History for KDLH - April, 2013

Change the Weather History Date:

Tuesday, April 9, 2013

  Actual Average Record
Temperature  
Mean Temperature 35 °F 36 °F  
Max Temperature 40 °F 46 °F 80 °F (1887)
Min Temperature 30 °F 27 °F 2 °F (2016)
Degree Days  
Heating Degree Days 30 28  
Month to date heating degree days 305 272  
Since 1 July heating degree days 8146 8349  
Cooling Degree Days 0 0  
Month to date cooling degree days 0 0  
Year to date cooling degree days 0 0  
Moisture  
Dew Point 24 °F    
Average Humidity 65    
Maximum Humidity 82    
Minimum Humidity 48    
Precipitation  
Precipitation 0.00 in 0.07 in 1.05 in (1950)
Month to date precipitation 1.22 0.59  
Year to date precipitation 5.81 3.85  
Snow  
Snow 0.00 in 0.30 in 8.00 in (1894)
Month to date snowfall 6.5 2.8  
Since 1 July snowfall 85.1 81.6  
Snow Depth 9.00 in    
Sea Level Pressure  
Sea Level Pressure 30.18 in    
Wind  
Wind Speed 11 mph (NNE)    
Max Wind Speed 17 mph    
Max Gust Speed 23 mph    
Visibility 10 miles    
Events      
T = Trace of Precipitation, MM = Missing Value Source: NWS Daily Summary

Daily Weather History Graph

Daily Weather History Graph

Search for Another Location

Airport or City:

Trip Planner

Search our weather history database for the weather conditions in past years. The results will help you decide how hot, cold, wet, or windy it might be!

Date:

Astronomy

Apr. 09, 2013 Rise Set
Actual Time 6:31 AM CDT 7:49 PM CDT
Civil Twilight 6:00 AM CDT 8:20 PM CDT
Nautical Twilight 5:23 AM CDT 8:58 PM CDT
Astronomical Twilight 4:42 AM CDT 9:39 PM CDT
Moon 5:56 AM CDT (4/9) 7:25 PM CDT (4/9)
Length of Visible Light 14h 20m
Length of Day
13h 17m
Waning Crescent, 1% of the Moon is Illuminated
Apr 9
Waning Crescent
Apr 10
New
Apr 18
First Quarter
Apr 25
Full
May 2
Last Quarter

Hourly Weather History & Observations

Time (CDT) Temp. Windchill Dew Point Humidity Pressure Visibility Wind Dir Wind Speed Gust Speed Precip Events Conditions
12:55 AM 36.0 °F 30.3 °F 30.9 °F 82% 30.13 in 10.0 mi NNW 6.9 mph - N/A   Overcast
1:55 AM 36.0 °F 29.0 °F 30.0 °F 79% 30.12 in 10.0 mi North 9.2 mph - N/A   Overcast
2:55 AM 36.0 °F 29.0 °F 28.9 °F 76% 30.11 in 10.0 mi North 9.2 mph - N/A   Overcast
3:55 AM 36.0 °F 26.3 °F 28.9 °F 76% 30.09 in 10.0 mi North 16.1 mph 21.9 mph N/A   Overcast
4:55 AM 35.1 °F 27.4 °F 28.0 °F 76% 30.11 in 10.0 mi North 10.4 mph - N/A   Overcast
5:28 AM 33.8 °F 25.8 °F 24.8 °F 70% 30.09 in 10.0 mi NNW 10.4 mph - N/A   Overcast
5:47 AM 33.8 °F 25.3 °F 24.8 °F 70% 30.09 in 10.0 mi NNW 11.5 mph - N/A   Overcast
5:55 AM 33.1 °F 24.4 °F 23.0 °F 66% 30.15 in 10.0 mi NNW 11.5 mph - N/A   Overcast
6:55 AM 30.9 °F 21.7 °F 21.0 °F 67% 30.17 in 10.0 mi North 11.5 mph - N/A   Overcast
7:55 AM 30.9 °F 19.8 °F 19.9 °F 64% 30.17 in 10.0 mi NNW 16.1 mph - N/A   Overcast
8:55 AM 30.9 °F 21.7 °F 19.9 °F 64% 30.19 in 10.0 mi North 11.5 mph 19.6 mph N/A   Scattered Clouds
9:55 AM 30.9 °F 21.2 °F 19.9 °F 64% 30.17 in 10.0 mi North 12.7 mph 21.9 mph N/A   Scattered Clouds
10:55 AM 34.0 °F 25.0 °F 21.9 °F 61% 30.18 in 10.0 mi North 12.7 mph - N/A   Scattered Clouds
11:55 AM 36.0 °F 28.0 °F 21.9 °F 57% 30.20 in 10.0 mi North 11.5 mph - N/A   Scattered Clouds
12:55 PM 37.9 °F 30.0 °F 21.9 °F 53% 30.21 in 10.0 mi NNE 12.7 mph 19.6 mph N/A   Scattered Clouds
1:55 PM 39.0 °F 32.8 °F 21.9 °F 50% 30.20 in 10.0 mi ENE 9.2 mph - N/A   Mostly Cloudy
2:55 PM 39.9 °F 32.9 °F 21.9 °F 49% 30.17 in 10.0 mi NNE 11.5 mph - N/A   Scattered Clouds
3:55 PM 37.0 °F 28.5 °F 24.1 °F 59% 30.20 in 10.0 mi ESE 13.8 mph - N/A   Mostly Cloudy
4:55 PM 37.0 °F 29.3 °F 25.0 °F 62% 30.19 in 10.0 mi East 11.5 mph - N/A   Scattered Clouds
5:55 PM 36.0 °F 29.6 °F 24.1 °F 62% 30.22 in 10.0 mi East 8.1 mph - N/A   Scattered Clouds
6:55 PM 36.0 °F 31.1 °F 24.1 °F 62% 30.24 in 10.0 mi East 5.8 mph - N/A   Mostly Cloudy
7:55 PM 35.1 °F 27.4 °F 21.9 °F 59% 30.23 in 10.0 mi ENE 10.4 mph - N/A   Mostly Cloudy
8:55 PM 34.0 °F 27.2 °F 21.9 °F 61% 30.23 in 10.0 mi East 8.1 mph - N/A   Mostly Cloudy
9:55 PM 33.1 °F 25.5 °F 21.9 °F 64% 30.24 in 10.0 mi ENE 9.2 mph - N/A   Mostly Cloudy
10:55 PM 32.0 °F 23.6 °F 21.9 °F 66% 30.22 in 10.0 mi ENE 10.4 mph - N/A   Scattered Clouds
11:55 PM 30.9 °F 24.3 °F 21.0 °F 67% 30.25 in 10.0 mi ENE 6.9 mph - N/A   Partly Cloudy